Domain,Timestamp,Username,Page_title,Edit_summary,Revision_id
hyw.wikipedia.org,2021-08-22 19:20:04,Betty Kilerjian,Աղթամար կղզի,#WPWP #WPWPWAM,195119
hyw.wikipedia.org,2021-08-22 19:19:09,Betty Kilerjian,Աղթամար կղզի,#WPWP #WPWPWAM,195118
hyw.wikipedia.org,2021-08-22 19:17:50,Betty Kilerjian,Աղթամար կղզի,#WPWP #WPWPWAM,195117
hyw.wikipedia.org,2021-08-22 19:17:16,Betty Kilerjian,Աղթամար կղզի,#WPWP #WPWPWAM,195116
hyw.wikipedia.org,2021-08-22 19:12:31,Betty Kilerjian,31 Դե�տեմբեր,#WPWP #WPWPWAM,195115
hyw.wikipedia.org,2021-08-22 19:11:53,Betty Kilerjian,31 Դեկտեմբեր,#WPWP #WPWPWAM,195114
hyw.wikipedia.org,2021-08-22 19:11:14,Betty Kilerjian,31 Դեկտեմբեր,#WPWP #WPWPWAM,195113
hyw.wikipedia.org,2021-08-22 19:10:42,Betty Kilerjian,31 Դեկտեմբեր,#WPWP #WPWPWAM,195112
hyw.wikipedia.org,2021-08-22 19:10:13,Betty Kilerjian,31 Դեկտեմբեր,#WPWP #WPWPWAM,195111
hyw.wikipedia.org,2021-08-22 19:09:04,Betty Kilerjian,30 Դեկտեմբեր,#WPWP #WPWPWAM,195110
hyw.wikipedia.org,2021-08-22 19:08:21,Betty Kilerjian,30 Դեկտեմբեր,#WPWP #WPWPWAM,195109
hyw.wikipedia.org,2021-08-22 19:07:38,Betty Kilerjian,30 Դեկտեմբեր,#WPWP #WPWPWAM,195108
hyw.wikipedia.org,2021-08-22 19:06:59,Betty Kilerjian,30 Դեկտեմբեր,#WPWP #WPWPWAM,195107
hyw.wikipedia.org,2021-08-22 19:05:32,Betty Kilerjian,24 Դեկտեմբեր,#WPWP #WPWPWAM,195106
hyw.wikipedia.org,2021-08-22 19:04:34,Betty Kilerjian,19 Դեկտեմբեր,#WPWP #WPWPWAM,195105
hyw.wikipedia.org,2021-08-22 19:03:44,Betty Kilerjian,18 Դեկտեմբեր,#WPWP #WPWPWAM,195104
hyw.wikipedia.org,2021-08-22 19:02:54,Betty Kilerjian,17 Դեկտեմբեր,#WPWP #WPWPWAM,195103
hyw.wikipedia.org,2021-08-22 19:02:17,Betty Kilerjian,17 Դեկտեմբեր,#WPWP #WPWPWAM,195102
hyw.wikipedia.org,2021-08-22 19:01:12,Betty Kilerjian,16 Դեկտեմբեր,#WPWP #WPWPWAM,195101
hyw.wikipedia.org,2021-08-22 19:00:42,Betty Kilerjian,16 Դեկտեմբեր,#WPWP #WPWPWAM,195100
hyw.wikipedia.org,2021-08-22 18:59:32,Betty Kilerjian,14 Դեկտեմբեր,#WPWP #WPWPWAM,195099
hyw.wikipedia.org,2021-08-22 18:58:32,Betty Kilerjian,13 Դեկտեմբեր,#WPWP #WPWPWAM,195098
hyw.wikipedia.org,2021-08-22 18:56:03,Betty Kilerjian,12 Դեկտեմբեր,#WPWP #WPWPWAM,195097
hyw.wikipedia.org,2021-08-22 18:55:23,Betty Kilerjian,12 Դեկտեմբեր,#WPWP #WPWPWAM,195096
hyw.wikipedia.org,2021-08-22 18:54:58,Betty Kilerjian,12 Դեկտեմբեր,#WPWP #WPWPWAM,195095
hyw.wikipedia.org,2021-08-22 18:53:51,Betty Kilerjian,11 Դեկտեմբեր,#WPWP #WPWPWAM,195094
hyw.wikipedia.org,2021-08-22 18:53:20,Betty Kilerjian,11 Դեկտեմբեր,#WPWP #WPWPWAM,195093
hyw.wikipedia.org,2021-08-22 18:52:41,Betty Kilerjian,11 Դեկտեմբեր,#WPWP #WPWPWAM,195092
hyw.wikipedia.org,2021-08-22 18:52:13,Betty Kilerjian,11 Դեկտեմբեր,#WPWP #WPWPWAM,195091
hyw.wikipedia.org,2021-08-22 18:51:11,Betty Kilerjian,10 Դեկտեմբեր,#WPWP #WPWPWAM,195090
hyw.wikipedia.org,2021-08-22 18:50:43,Betty Kilerjian,10 Դեկտեմբեր,#WPWP #WPWPWAM,195089
hyw.wikipedia.org,2021-08-22 18:49:26,Betty Kilerjian,8 Դեկտեմբեր,#WPWP #WPWPWAM,195088
hyw.wikipedia.org,2021-08-22 18:48:51,Betty Kilerjian,8 Դեկտեմբեր,#WPWP #WPWPWAM,195087
hyw.wikipedia.org,2021-08-22 18:48:17,Betty Kilerjian,8 Դեկտեմբեր,#WPWP #WPWPWAM,195086
hyw.wikipedia.org,2021-08-22 18:46:49,Betty Kilerjian,6 Դեկտեմբեր,#WPWP #WPWPWAM,195085
hyw.wikipedia.org,2021-08-22 18:45:33,Betty Kilerjian,4 Դեկտեմբեր,#WPWP #WPWPWAM,195084
hyw.wikipedia.org,2021-08-22 18:45:01,Betty Kilerjian,4 Դեկտեմ�եր,#WPWP #WPWPWAM,195083
hyw.wikipedia.org,2021-08-22 18:43:55,Betty Kilerjian,3 Դեկտեմբեր,#WPWP #WPWPWAM,195082
hyw.wikipedia.org,2021-08-22 18:43:17,Betty Kilerjian,3 Դեկտեմբեր,#WPWP #WPWPWAM,195081
hyw.wikipedia.org,2021-08-22 18:41:42,Betty Kilerjian,1 Դեկտեմբեր,#WPWP #WPWPWAM,195080
hyw.wikipedia.org,2021-08-22 18:41:08,Betty Kilerjian,1 Դեկտեմբեր,#WPWP #WPWPWAM,195079
hyw.wikipedia.org,2021-08-22 18:40:37,Betty Kilerjian,1 Դեկտեմբեր,#WPWP #WPWPWAM,195078
hyw.wikipedia.org,2021-08-22 18:40:06,Betty Kilerjian,1 Դեկտեմբեր,#WPWP #WPWPWAM,195077
hyw.wikipedia.org,2021-08-22 18:39:35,Betty Kilerjian,1 Դեկտեմբեր,#WPWP #WPWPWAM,195076
hyw.wikipedia.org,2021-08-22 18:38:13,Betty Kilerjian,30 Նոյեմբեր,#WPWP #WPWPWAM,195075
hyw.wikipedia.org,2021-08-22 18:36:44,Betty Kilerjian,28 Նոյեմբեր,#WPWP #WPWPWAM,195074
hyw.wikipedia.org,2021-08-22 18:35:40,Betty Kilerjian,22 Նոյեմբեր,#WPWP #WPWPWAM,195073
hyw.wikipedia.org,2021-08-22 18:35:06,Betty Kilerjian,22 Նոյեմբեր,#WPWP #WPWPWAM,195072
hyw.wikipedia.org,2021-08-22 18:32:50,Betty Kilerjian,19 Նոյեմբեր,#WPWP #WPWPWAM,195071
hyw.wikipedia.org,2021-08-22 18:32:15,Betty Kilerjian,19 Նոյեմբեր,#WPWP #WPWPWAM,195070
hyw.wikipedia.org,2021-08-22 18:31:39,Betty Kilerjian,19 Նոյեմբեր,#WPWP #WPWPWAM,195069
hyw.wikipedia.org,2021-08-22 18:31:08,Betty Kilerjian,19 Նոյեմբեր,#WPWP #WPWPWAM,195068
hyw.wikipedia.org,2021-08-22 18:29:54,Betty Kilerjian,17 Նոյեմբեր,#WPWP #WPWPWAM,195067
hyw.wikipedia.org,2021-08-22 18:28:45,Betty Kilerjian,15 Նոյեմբեր,#WPWP #WPWPWAM,195066
hyw.wikipedia.org,2021-08-22 18:27:31,Betty Kilerjian,13 Նոյեմբեր,#WPWP #WPWPWAM,195065
hyw.wikipedia.org,2021-08-22 18:26:54,Betty Kilerjian,13 Նոյեմբեր,#WPWP #WPWPWAM,195064
hyw.wikipedia.org,2021-08-22 18:25:07,Betty Kilerjian,11 Նոյեմբեր,#WPWP #WPWPWAM,195063
hyw.wikipedia.org,2021-08-22 18:24:36,Betty Kilerjian,11 Նոյեմբեր,#WPWP #WPWPWAM,195062
hyw.wikipedia.org,2021-08-22 18:22:14,Betty Kilerjian,10 Նոյեմբեր,#WPWP #WPWPWAM,195061
hyw.wikipedia.org,2021-08-22 18:21:26,Betty Kilerjian,10 Նոյեմբեր,#WPWP #WPWPWAM,195060
hyw.wikipedia.org,2021-08-22 18:20:21,Betty Kilerjian,9 Նոյեմբեր,#WPWP #WPWPWAM,195059
hyw.wikipedia.org,2021-08-22 18:19:49,Betty Kilerjian,9 Նոյեմբեր,#WPWP #WPWPWAM,195058
hyw.wikipedia.org,2021-08-22 18:19:11,Betty Kilerjian,9 Նոյեմբեր,#WPWP #WPWPWAM,195057
hyw.wikipedia.org,2021-08-22 18:18:30,Betty Kilerjian,9 Նոյեմբեր,#WPWP #WPWPWAM,195056
hyw.wikipedia.org,2021-08-22 18:18:00,Betty Kilerjian,9 Նոյեմբեր,#WPWP #WPWPWAM,195055
hyw.wikipedia.org,2021-08-22 18:16:47,Betty Kilerjian,8 Նոյեմբեր,#WPWP #WPWPWAM,195054
hyw.wikipedia.org,2021-08-22 18:15:44,Betty Kilerjian,7 Նոյեմբեր,#WPWP #WPWPWAM,195053
hyw.wikipedia.org,2021-08-22 18:15:02,Betty Kilerjian,7 Նոյեմբեր,#WPWP #WPWPWAM,195052
hyw.wikipedia.org,2021-08-22 18:14:21,Betty Kilerjian,7 Նոյեմբեր,#WPWP #WPWPWAM,195051
hyw.wikipedia.org,2021-08-22 18:13:21,Betty Kilerjian,6 Նոյեմբեր,#WPWP #WPWPWAM,195050
hyw.wikipedia.org,2021-08-22 18:12:51,Betty Kilerjian,6 Նոյեմբեր,#WPWP #WPWPWAM,195049
hyw.wikipedia.org,2021-08-22 18:12:20,Betty Kilerjian,6 Նոյեմբեր,#WPWP #WPWPWAM,195048
hyw.wikipedia.org,2021-08-22 18:10:51,Betty Kilerjian,4 Նոյեմբեր,#WPWP #WPWPWAM,195047
hyw.wikipedia.org,2021-08-22 18:10:14,Betty Kilerjian,4 Նոյեմբեր,#WPWP #WPWPWAM,195046
hyw.wikipedia.org,2021-08-22 18:09:41,Betty Kilerjian,4 Նոյեմբեր,#WPWP #WPWPWAM,195045
hyw.wikipedia.org,2021-08-22 18:08:14,Betty Kilerjian,2 Նոյեմբեր,#WPWP #WPWPWAM,195044
hyw.wikipedia.org,2021-08-22 18:07:43,Betty Kilerjian,2 Նոյեմբեր,#WPWP #WPWPWAM,195043
hyw.wikipedia.org,2021-08-22 18:06:41,Betty Kilerjian,1 Նոյեմբեր,#WPWP #WPWPWAM,195042
hyw.wikipedia.org,2021-08-22 18:06:07,Betty Kilerjian,1 Նոյեմբեր,#WPWP #WPWPWAM,195041
hyw.wikipedia.org,2021-08-22 17:05:42,HoMen,Քիքլատես,#WPWP #WPWPWAM,195040
hyw.wikipedia.org,2021-08-22 16:51:13,HoMen,Քիքլատես,#WPWP #WPWPWAM,195039
hyw.wikipedia.org,2021-08-22 16:50:27,HoMen,Քիքլատես,#WPWP #WPWPWAM,195038
hyw.wikipedia.org,2021-08-22 06:45:55,HoMen,Միջերկրական Ծով,#WPWP #WPWPWAM,195036
hyw.wikipedia.org,2021-08-22 06:44:02,HoMen,Միջերկրական Ծով,#WPWP #WPWPWAM,195035
hyw.wikipedia.org,2021-08-22 06:33:38,HoMen,Միջերկրական Ծով,#WPWP #WPWPWAM,195034
hyw.wikipedia.org,2021-08-22 06:28:47,HoMen,Միջերկրական Ծով,#WPWP #WPWPWAM,195033
hyw.wikipedia.org,2021-08-21 12:23:30,AliagM,Ամերիկայի Միացեալ Նահանգներ,#WPWP #WPWPWAM,195031
hyw.wikipedia.org,2021-08-21 12:22:04,AliagM,Ամերիկայի Միացեալ Նահանգներ,#WPWP #WPWPWAM,195030
hyw.wikipedia.org,2021-08-21 12:15:05,AliagM,101955 Պէնու,#WPWP #WPWPWAM,195029
hyw.wikipedia.org,2021-08-21 12:13:33,AliagM,101955 Պէնու,#WPWP #WPWPWAM,195028
hyw.wikipedia.org,2021-08-21 12:12:46,AliagM,101955 Պէնու,#WPWP #WPWPWAM,195027
hyw.wikipedia.org,2021-08-21 12:09:43,AliagM,Անժելինա Ճոլի,#WPWP #WPWPWAM,195026
hyw.wikipedia.org,2021-08-21 12:09:04,AliagM,Անժելինա Ճոլի,#WPWP #WPWPWAM,195025
hyw.wikipedia.org,2021-08-21 12:07:56,AliagM,Անժելինա Ճոլի,#WPWP #WPWPWAM,195024
hyw.wikipedia.org,2021-08-21 12:07:03,AliagM,Անժելինա Ճոլի,#WPWP #WPWPWAM,195023
hyw.wikipedia.org,2021-08-21 12:06:28,AliagM,Անժելինա Ճոլի,#WPWP #WPWPWAM,195022
hyw.wikipedia.org,2021-08-21 12:04:30,AliagM,Անժելինա Ճոլի,#WPWP #WPWPWAM,195021
hyw.wikipedia.org,2021-08-21 12:01:11,AliagM,Անժելինա Ճոլի,#WPWP #WPWPWAM,195020
hyw.wikipedia.org,2021-08-21 11:59:05,AliagM,Անժելինա Ճոլի,#WPWP #WPWPWAM,195019
hyw.wikipedia.org,2021-08-21 11:57:01,AliagM,Անժելինա Ճոլի,#WPWP #WPWPWAM,195018
hyw.wikipedia.org,2021-08-21 11:55:52,AliagM,Անժելինա Ճոլի,#WPWP #WPWPWAM,195017
hyw.wikipedia.org,2021-08-21 11:54:41,AliagM,Անժելինա Ճոլի,#WPWP #WPWPWAM,195016
hyw.wikipedia.org,2021-08-21 11:48:35,AliagM,Անժելինա Ճոլի,#WPWP #WPWPWAM,195015
hyw.wikipedia.org,2021-08-21 10:27:23,AliagM,Ազատութեան արձան,#WPWP #WPWPWAM,195014
hyw.wikipedia.org,2021-08-21 10:24:22,AliagM,Ազատութեան արձան,#WPWP #WPWPWAM,195013
hyw.wikipedia.org,2021-08-21 10:23:29,AliagM,Ազատութեան արձան,#WPWP #WPWPWAM,195012
hyw.wikipedia.org,2021-08-21 10:22:40,AliagM,Ազատութեան արձան,#WPWP #WPWPWAM,195011
hyw.wikipedia.org,2021-08-21 10:21:43,AliagM,Ազատութեան արձան,#WPWP #WPWPWAM,195010
hyw.wikipedia.org,2021-08-21 10:20:13,AliagM,Ազատութեան արձան,#WPWP #WPWPWAM,195009
hyw.wikipedia.org,2021-08-21 10:19:29,AliagM,Ազատութեան արձան,#WPWP #WPWPWAM,195008
hyw.wikipedia.org,2021-08-21 10:18:30,AliagM,Ազատութեան արձան,#WPWP #WPWPWAM,195007
hyw.wikipedia.org,2021-08-21 10:10:47,AliagM,Ազատութեան արձան,#WPWP #WPWPWAM,195006
hyw.wikipedia.org,2021-08-21 10:09:50,AliagM,Ազատութեան արձան,#WPWP #WPWPWAM,195005
hyw.wikipedia.org,2021-08-21 10:09:01,AliagM,Ազատութեան արձան,#WPWP #WPWPWAM,195004
hyw.wikipedia.org,2021-08-21 10:08:15,AliagM,Ազատութեան արձան,#WPWP #WPWPWAM,195003
hyw.wikipedia.org,2021-08-21 10:07:18,AliagM,Ազատութեան արձան,#WPWP #WPWPWAM,195002
hyw.wikipedia.org,2021-08-21 10:03:40,AliagM,Ազատութեան արձան,#WPWP #WPWPWAM,195001
hyw.wikipedia.org,2021-08-21 10:02:46,AliagM,Ազատութեան արձան,#WPWP #WPWPWAM,195000
hyw.wikipedia.org,2021-08-21 10:00:52,AliagM,Ազատութեան արձան,#WPWP #WPWPWAM,194999
hyw.wikipedia.org,2021-08-21 10:00:05,AliagM,Ազատութեան արձան,#WPWP #WPWPWAM,194998
hyw.wikipedia.org,2021-08-21 09:59:02,AliagM,Ազատութեան արձան,#WPWP #WPWPWAM,194997
hyw.wikipedia.org,2021-08-21 09:58:06,AliagM,Ազատութեան արձան,#WPWP #WPWPWAM,194996
hyw.wikipedia.org,2021-08-21 09:57:22,AliagM,Ազատութեան արձան,#WPWP #WPWPWAM,194995
hyw.wikipedia.org,2021-08-21 09:56:38,AliagM,Ազատութեան արձան,#WPWP #WPWPWAM,194994
hyw.wikipedia.org,2021-08-21 09:54:07,AliagM,Թիմ Պըրթըն,#WPWP #WPWPWAM,194993
hyw.wikipedia.org,2021-08-21 09:52:45,AliagM,Թիմ Պըրթըն,#WPWP #WPWPWAM,194992
hyw.wikipedia.org,2021-08-21 09:48:56,AliagM,Գանյար,#WPWP #WPWPWAM,194991
hyw.wikipedia.org,2021-08-21 09:47:56,AliagM,Գանյար,#WPWP #WPWPWAM,194990
hyw.wikipedia.org,2021-08-21 09:46:34,AliagM,Գանյար,#WPWP #WPWPWAM,194989
hyw.wikipedia.org,2021-08-21 09:43:34,AliagM,Ֆրանսերէնը Քանատայի Մէջ,#WPWP #WPWPWAM,194988
hyw.wikipedia.org,2021-08-20 18:40:45,Betty Kilerjian,31 Հոկտեմբեր,#WPWP #WPWPWAM,194985
hyw.wikipedia.org,2021-08-20 18:39:29,Betty Kilerjian,30 Հոկտեմբեր,#WPWP #WPWPWAM,194984
hyw.wikipedia.org,2021-08-20 18:38:53,Betty Kilerjian,30 Հոկտեմբեր,#WPWP #WPWPWAM,194983
hyw.wikipedia.org,2021-08-20 18:36:15,Betty Kilerjian,19 Հոկտեմբեր,#WPWP #WPWPWAM,194982
hyw.wikipedia.org,2021-08-20 18:35:23,Betty Kilerjian,18 Հոկտեմբեր,#WPWP #WPWPWAM,194981
hyw.wikipedia.org,2021-08-20 18:34:33,Betty Kilerjian,18 Հոկտեմբեր,#WPWP #WPWPWAM,194980
hyw.wikipedia.org,2021-08-20 18:33:55,Betty Kilerjian,18 Հոկտեմբեր,#WPWP #WPWPWAM,194979
hyw.wikipedia.org,2021-08-20 18:33:19,Betty Kilerjian,18 Հոկտեմբեր,#WPWP #WPWPWAM,194978
hyw.wikipedia.org,2021-08-20 18:30:55,Betty Kilerjian,17 Հոկտեմբեր,#WPWP #WPWPWAM,194977
hyw.wikipedia.org,2021-08-20 18:30:04,Betty Kilerjian,17 Հոկտեմբեր,#WPWP #WPWPWAM,194976
hyw.wikipedia.org,2021-08-20 18:29:19,Betty Kilerjian,17 Հոկտեմբեր,#WPWP #WPWPWAM,194975
hyw.wikipedia.org,2021-08-20 18:28:37,Betty Kilerjian,17 Հոկտեմբեր,#WPWP #WPWPWAM,194974
hyw.wikipedia.org,2021-08-20 18:27:54,Betty Kilerjian,17 Հոկտեմբեր,#WPWP #WPWPWAM,194973
hyw.wikipedia.org,2021-08-20 18:26:16,Betty Kilerjian,16 Հոկտեմբեր,#WPWP #WPWPWAM,194972
hyw.wikipedia.org,2021-08-20 18:25:18,Betty Kilerjian,15 Հոկտեմբեր,#WPWP #WPWPWAM,194971
hyw.wikipedia.org,2021-08-20 18:24:08,Betty Kilerjian,14 Հոկտեմբեր,#WPWP #WPWPWAM,194970
hyw.wikipedia.org,2021-08-20 18:22:57,Betty Kilerjian,13 Հոկտեմբեր,#WPWP #WPWPWAM,194969
hyw.wikipedia.org,2021-08-20 18:21:51,Betty Kilerjian,12 Հոկտեմբեր,#WPWP #WPWPWAM,194968
hyw.wikipedia.org,2021-08-20 18:21:13,Betty Kilerjian,12 Հոկտեմբեր,#WPWP #WPWPWAM,194967
hyw.wikipedia.org,2021-08-20 18:20:24,Betty Kilerjian,12 Հոկտեմբեր,#WPWP #WPWPWAM,194966
hyw.wikipedia.org,2021-08-20 18:19:37,Betty Kilerjian,12 Հոկտեմբեր,#WPWP #WPWPWAM,194965
hyw.wikipedia.org,2021-08-20 18:18:38,Betty Kilerjian,11 Հոկտեմբեր,#WPWP #WPWPWAM,194964
hyw.wikipedia.org,2021-08-20 18:17:17,Betty Kilerjian,10 Հոկտեմբեր,#WPWP #WPWPWAM,194963
hyw.wikipedia.org,2021-08-20 18:16:43,Betty Kilerjian,10 Հոկտեմբեր,#WPWP #WPWPWAM,194962
hyw.wikipedia.org,2021-08-20 18:16:15,Betty Kilerjian,10 Հոկտեմբեր,#WPWP #WPWPWAM,194961
hyw.wikipedia.org,2021-08-20 18:15:12,Betty Kilerjian,9 Հոկտեմբեր,#WPWP #WPWPWAM,194960
hyw.wikipedia.org,2021-08-20 18:14:09,Betty Kilerjian,8 Հոկտեմբեր,#WPWP #WPWPWAM,194959
hyw.wikipedia.org,2021-08-20 18:13:15,Betty Kilerjian,8 Հոկտեմբեր,#WPWP #WPWPWAM,194958
hyw.wikipedia.org,2021-08-20 18:12:29,Betty Kilerjian,8 Հոկտեմբեր,#WPWP #WPWPWAM,194957
hyw.wikipedia.org,2021-08-20 18:11:37,Betty Kilerjian,8 Հոկտեմբեր,#WPWP #WPWPWAM,194956
hyw.wikipedia.org,2021-08-20 18:09:24,Betty Kilerjian,4 Հոկտեմբեր,#WPWP #WPWPWAM,194955
hyw.wikipedia.org,2021-08-20 18:08:28,Betty Kilerjian,4 Հոկտեմբեր,#WPWP #WPWPWAM,194954
hyw.wikipedia.org,2021-08-20 18:07:52,Betty Kilerjian,4 Հոկտեմբեր,#WPWP #WPWPWAM,194953
hyw.wikipedia.org,2021-08-20 18:07:12,Betty Kilerjian,4 Հոկտեմբեր,#WPWP #WPWPWAM,194952
hyw.wikipedia.org,2021-08-20 18:05:54,Betty Kilerjian,3 Հոկտեմբեր,#WPWP #WPWPWAM,194951
hyw.wikipedia.org,2021-08-20 18:05:16,Betty Kilerjian,3 Հոկտեմբեր,#WPWP #WPWPWAM,194950
hyw.wikipedia.org,2021-08-20 18:04:41,Betty Kilerjian,3 Հոկտեմբեր,#WPWP #WPWPWAM,194949
hyw.wikipedia.org,2021-08-20 18:03:18,Betty Kilerjian,1 Հոկտեմբեր,#WPWP #WPWPWAM,194948
hyw.wikipedia.org,2021-08-20 18:02:42,Betty Kilerjian,1 Հոկտեմբեր,#WPWP #WPWPWAM,194947
hyw.wikipedia.org,2021-08-19 17:19:44,Betty Kilerjian,30 Սեպտեմբեր,#WPWP #WPWPWAM,194945
hyw.wikipedia.org,2021-08-19 17:17:33,Betty Kilerjian,26 Սեպտեմբեր,#WPWP #WPWPWAM,194944
hyw.wikipedia.org,2021-08-19 17:16:03,Betty Kilerjian,20 Սեպտեմբեր,#WPWP #WPWPWAM,194943
hyw.wikipedia.org,2021-08-19 17:14:59,Betty Kilerjian,19 Սեպտեմբեր,#WPWP #WPWPWAM,194942
hyw.wikipedia.org,2021-08-19 17:14:03,Betty Kilerjian,19 Սեպտեմբեր,#WPWP #WPWPWAM,194941
hyw.wikipedia.org,2021-08-19 17:13:25,Betty Kilerjian,19 Սեպտեմբեր,#WPWP #WPWPWAM,194940
hyw.wikipedia.org,2021-08-19 17:12:16,Betty Kilerjian,18 Սեպտեմբեր,#WPWP #WPWPWAM,194939
hyw.wikipedia.org,2021-08-19 17:10:42,Betty Kilerjian,17 Սեպտեմբեր,#WPWP #WPWPWAM,194938
hyw.wikipedia.org,2021-08-19 17:09:56,Betty Kilerjian,17 Սեպտեմբեր,#WPWP #WPWPWAM,194937
hyw.wikipedia.org,2021-08-19 17:08:59,Betty Kilerjian,16 Սեպտեմբեր,#WPWP #WPWPWAM,194936
hyw.wikipedia.org,2021-08-19 17:07:51,Betty Kilerjian,15 Սեպտեմբեր,#WPWP #WPWPWAM,194935
hyw.wikipedia.org,2021-08-19 17:07:13,Betty Kilerjian,15 Սեպտեմբեր,#WPWP #WPWPWAM,194934
hyw.wikipedia.org,2021-08-19 17:04:42,Betty Kilerjian,14 Սեպտեմբեր,#WPWP #WPWPWAM,194933
hyw.wikipedia.org,2021-08-19 17:03:55,Betty Kilerjian,14 Սեպտեմբեր,#WPWP #WPWPWAM,194932
hyw.wikipedia.org,2021-08-19 17:02:51,Betty Kilerjian,14 Սեպտեմբեր,#WPWP #WPWPWAM,194931
hyw.wikipedia.org,2021-08-19 17:02:20,Betty Kilerjian,14 Սեպտեմբեր,#WPWP #WPWPWAM,194930
hyw.wikipedia.org,2021-08-19 17:01:03,Betty Kilerjian,13 Սեպտեմբեր,#WPWP #WPWPWAM,194929
hyw.wikipedia.org,2021-08-19 16:59:47,Betty Kilerjian,11 Սեպտեմբեր,#WPWP #WPWPWAM,194928
hyw.wikipedia.org,2021-08-19 16:58:57,Betty Kilerjian,10 Սեպտեմբեր,#WPWP #WPWPWAM,194927
hyw.wikipedia.org,2021-08-19 16:58:09,Betty Kilerjian,10 Սեպտեմբեր,#WPWP #WPWPWAM,194926
hyw.wikipedia.org,2021-08-19 16:57:29,Betty Kilerjian,10 Սեպտեմբեր,#WPWP #WPWPWAM,194925
hyw.wikipedia.org,2021-08-19 16:55:52,Betty Kilerjian,8 Սեպտեմբեր,#WPWP #WPWPWAM,194924
hyw.wikipedia.org,2021-08-19 16:55:17,Betty Kilerjian,8 Սեպտեմբեր,#WPWP #WPWPWAM,194923
hyw.wikipedia.org,2021-08-19 16:54:17,Betty Kilerjian,8 Սեպտեմբեր,#WPWP #WPWPWAM,194922
hyw.wikipedia.org,2021-08-19 16:53:38,Betty Kilerjian,8 Սեպտեմբեր,#WPWP #WPWPWAM,194921
hyw.wikipedia.org,2021-08-19 16:53:04,Betty Kilerjian,8 Սեպտեմբեր,#WPWP #WPWPWAM,194920
hyw.wikipedia.org,2021-08-19 16:52:35,Betty Kilerjian,8 Սեպտեմբեր,#WPWP #WPWPWAM,194919
hyw.wikipedia.org,2021-08-19 16:51:08,Betty Kilerjian,7 Սեպտեմբեր,#WPWP #WPWPWAM,194918
hyw.wikipedia.org,2021-08-19 16:50:32,Betty Kilerjian,7 Սեպտեմբեր,#WPWP #WPWPWAM,194917
hyw.wikipedia.org,2021-08-19 16:47:28,Betty Kilerjian,3 Սեպտեմբեր,#WPWP #WPWPWAM,194916
hyw.wikipedia.org,2021-08-19 16:46:24,Betty Kilerjian,3 Սեպտեմբեր,#WPWP #WPWPWAM,194915
hyw.wikipedia.org,2021-08-19 16:44:36,Betty Kilerjian,1 Սեպտեմբեր,#WPWP #WPWPWAM,194914
hyw.wikipedia.org,2021-08-19 16:43:09,Betty Kilerjian,1 Սեպտեմբեր,#WPWP #WPWPWAM,194913
hyw.wikipedia.org,2021-08-19 16:03:38,Betty Kilerjian,Սուրէն Դանիէլեան,#WPWP #WPWPWAM,194912
hyw.wikipedia.org,2021-08-19 13:34:38,Betty Kilerjian,31 Օգոստոս,#WPWP #WPWPWAM,194907
hyw.wikipedia.org,2021-08-19 13:33:36,Betty Kilerjian,30 Օգոստոս,#WPWP #WPWPWAM,194906
hyw.wikipedia.org,2021-08-19 13:33:07,Betty Kilerjian,30 Օգոստոս,#WPWP #WPWPWAM,194905
hyw.wikipedia.org,2021-08-19 13:32:24,Betty Kilerjian,30 Օգոստոս,#WPWP #WPWPWAM,194904
hyw.wikipedia.org,2021-08-19 13:30:31,Betty Kilerjian,18 Օգոստոս,#WPWP #WPWPWAM,194903
hyw.wikipedia.org,2021-08-19 13:30:01,Betty Kilerjian,18 Օգոստոս,#WPWP #WPWPWAM,194902
hyw.wikipedia.org,2021-08-19 13:29:04,Betty Kilerjian,17 Օգոստոս,#WPWP #WPWPWAM,194901
hyw.wikipedia.org,2021-08-19 13:28:29,Betty Kilerjian,17 Օգոստոս,#WPWP #WPWPWAM,194900
hyw.wikipedia.org,2021-08-19 13:27:54,Betty Kilerjian,17 Օգոստոս,#WPWP #WPWPWAM,194899
hyw.wikipedia.org,2021-08-19 13:27:23,Betty Kilerjian,17 Օգոստոս,#WPWP #WPWPWAM,194898
hyw.wikipedia.org,2021-08-19 13:26:01,Betty Kilerjian,16 Օգոստոս,#WPWP #WPWPWAM,194897
hyw.wikipedia.org,2021-08-19 13:25:25,Betty Kilerjian,16 Օգոստոս,#WPWP #WPWPWAM,194896
hyw.wikipedia.org,2021-08-19 13:23:50,Betty Kilerjian,15 Օգոստոս,#WPWP #WPWPWAM,194894
hyw.wikipedia.org,2021-08-19 13:22:14,Betty Kilerjian,13 Օգոստոս,#WPWP #WPWPWAM,194892
hyw.wikipedia.org,2021-08-19 13:20:59,Betty Kilerjian,11 Օգոստոս,#WPWP #WPWPWAM,194891
hyw.wikipedia.org,2021-08-19 13:20:26,Betty Kilerjian,11 Օգոստոս,#WPWP #WPWPWAM,194889
hyw.wikipedia.org,2021-08-19 13:18:01,Betty Kilerjian,10 Օգոստոս,#WPWP #WPWPWAM,194886
hyw.wikipedia.org,2021-08-19 13:15:57,Betty Kilerjian,10 Օգոստոս,#WPWP #WPWPWAM,194883
hyw.wikipedia.org,2021-08-19 13:09:10,Betty Kilerjian,9 Օգոստոս,#WPWP #WPWPWAM,194878
hyw.wikipedia.org,2021-08-19 13:08:31,Betty Kilerjian,9 Օգոստոս,#WPWP #WPWPWAM,194877
hyw.wikipedia.org,2021-08-19 13:07:38,Betty Kilerjian,9 Օգոստոս,#WPWP #WPWPWAM,194876
hyw.wikipedia.org,2021-08-19 13:07:09,Betty Kilerjian,9 Օգոստոս,#WPWP #WPWPWAM,194875
hyw.wikipedia.org,2021-08-19 13:06:37,Betty Kilerjian,9 Օգոստոս,#WPWP #WPWPWAM,194874
hyw.wikipedia.org,2021-08-19 13:05:06,Betty Kilerjian,7 Օգոստոս,#WPWP #WPWPWAM,194873
hyw.wikipedia.org,2021-08-19 13:04:34,Betty Kilerjian,7 Օգոս�ոս,#WPWP #WPWPWAM,194872
hyw.wikipedia.org,2021-08-19 13:03:34,Betty Kilerjian,5 Օգոստոս,#WPWP #WPWPWAM,194871
hyw.wikipedia.org,2021-08-19 13:02:01,Betty Kilerjian,4 Օգոստոս,#WPWP #WPWPWAM,194869
hyw.wikipedia.org,2021-08-19 12:58:16,Betty Kilerjian,1 Օգոստոս,#WPWP #WPWPWAM,194865
hyw.wikipedia.org,2021-08-18 19:16:40,Betty Kilerjian,31 Յուլիս,#WPWP #WPWPWAM,194582
hyw.wikipedia.org,2021-08-18 19:16:03,Betty Kilerjian,31 Յուլիս,#WPWP #WPWPWAM,194581
hyw.wikipedia.org,2021-08-18 19:15:24,Betty Kilerjian,31 Յուլիս,#WPWP #WPWPWAM,194580
hyw.wikipedia.org,2021-08-18 19:13:13,Betty Kilerjian,30 Յուլիս,#WPWP #WPWPWAM,194579
hyw.wikipedia.org,2021-08-18 19:12:37,Betty Kilerjian,30 Յուլիս,#WPWP #WPWPWAM,194578
hyw.wikipedia.org,2021-08-18 19:11:37,Betty Kilerjian,29 Յուլիս,#WPWP #WPWPWAM,194577
hyw.wikipedia.org,2021-08-18 19:10:09,Betty Kilerjian,25 Յուլիս,#WPWP #WPWPWAM,194576
hyw.wikipedia.org,2021-08-18 19:08:50,Betty Kilerjian,20 Յուլիս,#WPWP #WPWPWAM,194575
hyw.wikipedia.org,2021-08-18 19:07:45,Betty Kilerjian,19 Յուլիս,#WPWP #WPWPWAM,194574
hyw.wikipedia.org,2021-08-18 19:07:14,Betty Kilerjian,19 Յուլիս,#WPWP #WPWPWAM,194573
hyw.wikipedia.org,2021-08-18 19:06:11,Betty Kilerjian,18 Յուլիս,#WPWP #WPWPWAM,194572
hyw.wikipedia.org,2021-08-18 19:05:35,Betty Kilerjian,18 Յուլիս,#WPWP #WPWPWAM,194571
hyw.wikipedia.org,2021-08-18 19:04:29,Betty Kilerjian,17 Յուլիս,#WPWP #WPWPWAM,194570
hyw.wikipedia.org,2021-08-18 19:03:25,Betty Kilerjian,16 Յուլիս,#WPWP #WPWPWAM,194569
hyw.wikipedia.org,2021-08-18 19:02:56,Betty Kilerjian,16 Յուլիս,#WPWP #WPWPWAM,194568
hyw.wikipedia.org,2021-08-18 19:01:57,Betty Kilerjian,15 Յուլիս,#WPWP #WPWPWAM,194567
hyw.wikipedia.org,2021-08-18 19:01:25,Betty Kilerjian,15 Յուլիս,#WPWP #WPWPWAM,194566
hyw.wikipedia.org,2021-08-18 19:00:06,Betty Kilerjian,15 Յուլիս,#WPWP #WPWPWAM,194565
hyw.wikipedia.org,2021-08-18 18:59:12,Betty Kilerjian,15 Յուլիս,#WPWP #WPWPWAM,194564
hyw.wikipedia.org,2021-08-18 18:58:35,Betty Kilerjian,15 Յուլիս,#WPWP #WPWPWAM,194563
hyw.wikipedia.org,2021-08-18 18:57:06,Betty Kilerjian,14 Յուլիս,#WPWP #WPWPWAM,194562
hyw.wikipedia.org,2021-08-18 18:56:03,Betty Kilerjian,13 Յուլիս,#WPWP #WPWPWAM,194561
hyw.wikipedia.org,2021-08-18 18:55:20,Betty Kilerjian,13 Յուլիս,#WPWP #WPWPWAM,194560
hyw.wikipedia.org,2021-08-18 18:54:13,Betty Kilerjian,12 Յուլիս,#WPWP #WPWPWAM,194559
hyw.wikipedia.org,2021-08-18 18:53:38,Betty Kilerjian,12 Յուլիս,#WPWP #WPWPWAM,194558
hyw.wikipedia.org,2021-08-18 18:51:41,Betty Kilerjian,11 Յուլիս,#WPWP #WPWPWAM,194557
hyw.wikipedia.org,2021-08-18 18:50:40,Betty Kilerjian,11 Յուլիս,#WPWP #WPWPWAM,194556
hyw.wikipedia.org,2021-08-18 18:49:40,Betty Kilerjian,11 Յուլիս,#WPWP #WPWPWAM,194555
hyw.wikipedia.org,2021-08-18 18:49:05,Betty Kilerjian,11 Յուլիս,#WPWP #WPWPWAM,194554
hyw.wikipedia.org,2021-08-18 18:47:42,Betty Kilerjian,10 Յուլիս,#WPWP #WPWPWAM,194553
hyw.wikipedia.org,2021-08-18 18:41:51,Betty Kilerjian,8 Յուլիս,#WPWP #WPWPWAM,194552
hyw.wikipedia.org,2021-08-18 18:41:16,Betty Kilerjian,8 Յուլիս,#WPWP #WPWPWAM,194551
hyw.wikipedia.org,2021-08-18 18:40:40,Betty Kilerjian,8 Յուլիս,#WPWP #WPWPWAM,194550
hyw.wikipedia.org,2021-08-18 18:39:34,Betty Kilerjian,7 Յուլիս,#WPWP #WPWPWAM,194549
hyw.wikipedia.org,2021-08-18 18:39:03,Betty Kilerjian,7 Յուլիս,#WPWP #WPWPWAM,194548
hyw.wikipedia.org,2021-08-18 18:38:24,Betty Kilerjian,7 Յուլիս,#WPWP #WPWPWAM,194547
hyw.wikipedia.org,2021-08-18 18:35:47,Betty Kilerjian,6 Յուլիս,#WPWP #WPWPWAM,194546
hyw.wikipedia.org,2021-08-18 18:34:28,Betty Kilerjian,5 Յուլիս,#WPWP #WPWPWAM,194545
hyw.wikipedia.org,2021-08-18 18:33:57,Betty Kilerjian,5 Յուլիս,#WPWP #WPWPWAM,194544
hyw.wikipedia.org,2021-08-18 18:33:32,Beko,Պար,#WPWP #WPWPWAM,194543
hyw.wikipedia.org,2021-08-18 18:33:26,Betty Kilerjian,5 Յուլիս,#WPWP #WPWPWAM,194542
hyw.wikipedia.org,2021-08-18 18:32:10,Betty Kilerjian,4 Յուլիս,#WPWP #WPWPWAM,194541